TPC5711 YMML-YSSY

Flight info

Callsign TPC5711
Flight time 1h 13m
Altitude 37000
Route DCT ML H129 DOSEL Y59 RIVET RIVET4
Aircraft A320/M-SDE3FGHIRWY/LB1

Departure

Time 2026-04-20 03:36
Airport Melbourne Airport (YMML)

Arrival

Time 2026-04-20 04:49
Airport Sydney Kingsford Smith International Airport (YSSY)
Time Latitude Longitude Altitude Speed Heading
2026-04-20 03:10 -37.66914 144.84586 357 ft 0 kts 360°
2026-04-20 03:24 -37.66917 144.84586 357 ft 2 kts 360°
2026-04-20 03:24 -37.66942 144.84587 365 ft 4 kts 358°
2026-04-20 03:24 -37.66969 144.84587 364 ft 4 kts 358°
2026-04-20 03:24 -37.66994 144.84593 362 ft 4 kts 325°
2026-04-20 03:25 -37.67007 144.84615 361 ft 2 kts 266°
2026-04-20 03:25 -37.67007 144.84618 361 ft 2 kts 264°
2026-04-20 03:28 -37.67009 144.84595 363 ft 9 kts 261°
2026-04-20 03:28 -37.67029 144.84458 364 ft 14 kts 251°
2026-04-20 03:29 -37.67052 144.84367 371 ft 12 kts 260°
2026-04-20 03:29 -37.67037 144.84252 373 ft 16 kts 316°
2026-04-20 03:29 -37.66944 144.84223 373 ft 13 kts 354°
2026-04-20 03:29 -37.66867 144.84207 374 ft 6 kts 349°
2026-04-20 03:30 -37.66821 144.84196 375 ft 10 kts 349°
2026-04-20 03:30 -37.66758 144.84181 376 ft 8 kts 349°
2026-04-20 03:30 -37.66713 144.84172 376 ft 2 kts 358°
2026-04-20 03:30 -37.66694 144.84243 372 ft 15 kts 80°
2026-04-20 03:31 -37.66674 144.84399 366 ft 17 kts 82°
2026-04-20 03:31 -37.66658 144.84555 352 ft 20 kts 83°
2026-04-20 03:31 -37.66646 144.84680 346 ft 8 kts 83°
2026-04-20 03:31 -37.66633 144.84765 334 ft 11 kts 64°
2026-04-20 03:32 -37.66588 144.84802 334 ft 8 kts 10°
2026-04-20 03:32 -37.66526 144.84794 332 ft 10 kts 346°
2026-04-20 03:32 -37.66454 144.84779 332 ft 11 kts
2026-04-20 03:32 -37.66376 144.84786 329 ft 11 kts
2026-04-20 03:33 -37.66313 144.84790 331 ft 0 kts 360°
2026-04-20 03:34 -37.66310 144.84790 331 ft 4 kts 360°
2026-04-20 03:34 -37.66229 144.84772 330 ft 10 kts 308°
2026-04-20 03:35 -37.66223 144.84731 332 ft 0 kts 272°
2026-04-20 03:35 -37.66222 144.84668 339 ft 34 kts 272°
2026-04-20 03:36 -37.66182 144.84009 381 ft 110 kts 274°
2026-04-20 03:36 -37.66115 144.82804 433 ft 163 kts 274°
2026-04-20 03:36 -37.66005 144.81361 1066 ft 167 kts 272°
2026-04-20 03:36 -37.65888 144.79851 1783 ft 177 kts 274°
2026-04-20 03:37 -37.65737 144.78268 2514 ft 186 kts 276°
2026-04-20 03:37 -37.65583 144.76564 3042 ft 207 kts 273°
2026-04-20 03:37 -37.65497 144.74645 3545 ft 231 kts 271°
2026-04-20 03:37 -37.65419 144.72513 4091 ft 254 kts 272°
2026-04-20 03:38 -37.65324 144.70247 4849 ft 260 kts 274°
2026-04-20 03:38 -37.64928 144.68029 5778 ft 262 kts 292°
2026-04-20 03:38 -37.63947 144.66075 6778 ft 268 kts 311°
2026-04-20 03:38 -37.62473 144.64655 7679 ft 276 kts 332°
2026-04-20 03:39 -37.60635 144.63843 8581 ft 283 kts 342°
2026-04-20 03:39 -37.58727 144.63140 9484 ft 289 kts 342°
2026-04-20 03:39 -37.56723 144.62733 10339 ft 298 kts 359°
2026-04-20 03:39 -37.54603 144.63114 10775 ft 322 kts 17°
2026-04-20 03:40 -37.52556 144.64480 11081 ft 348 kts 38°
2026-04-20 03:40 -37.50898 144.66785 11570 ft 362 kts 53°
2026-04-20 03:40 -37.49380 144.69341 12300 ft 367 kts 53°
2026-04-20 03:40 -37.47836 144.71930 13099 ft 372 kts 54°
2026-04-20 03:41 -37.46473 144.74712 13861 ft 376 kts 60°
2026-04-20 03:41 -37.45158 144.77587 14561 ft 382 kts 60°
2026-04-20 03:41 -37.43824 144.80499 15238 ft 386 kts 60°
2026-04-20 03:41 -37.42473 144.83445 15908 ft 391 kts 60°
2026-04-20 03:42 -37.41102 144.86430 16575 ft 395 kts 61°
2026-04-20 03:42 -37.39720 144.89439 17234 ft 400 kts 61°
2026-04-20 03:42 -37.38323 144.92479 17886 ft 404 kts 61°
2026-04-20 03:42 -37.36905 144.95555 18547 ft 408 kts 61°
2026-04-20 03:43 -37.35474 144.98652 19113 ft 412 kts 61°
2026-04-20 03:43 -37.34029 145.01777 19679 ft 415 kts 62°
2026-04-20 03:43 -37.32573 145.04922 20221 ft 419 kts 62°
2026-04-20 03:43 -37.31104 145.08102 20783 ft 422 kts 62°
2026-04-20 03:44 -37.29628 145.11307 21341 ft 425 kts 62°
2026-04-20 03:44 -37.28143 145.14529 21876 ft 429 kts 63°
2026-04-20 03:44 -37.26641 145.17778 22412 ft 432 kts 63°
2026-04-20 03:44 -37.25125 145.21047 22931 ft 435 kts 63°
2026-04-20 03:45 -37.23590 145.24344 23441 ft 439 kts 63°
2026-04-20 03:45 -37.22049 145.27654 23938 ft 442 kts 63°
2026-04-20 03:45 -37.20493 145.30995 24352 ft 445 kts 63°
2026-04-20 03:45 -37.18927 145.34354 24758 ft 448 kts 63°
2026-04-20 03:46 -37.17348 145.37739 25149 ft 451 kts 63°
2026-04-20 03:46 -37.15641 145.41055 25543 ft 456 kts 57°
2026-04-20 03:46 -37.13783 145.44290 25939 ft 459 kts 58°
2026-04-20 03:46 -37.11917 145.47546 26341 ft 461 kts 58°
2026-04-20 03:47 -37.10042 145.50821 26739 ft 464 kts 58°
2026-04-20 03:47 -37.08154 145.54116 27142 ft 467 kts 58°
2026-04-20 03:47 -37.06254 145.57423 27524 ft 470 kts 58°
2026-04-20 03:47 -37.04336 145.60755 27898 ft 473 kts 58°
2026-04-20 03:48 -37.02406 145.64102 28265 ft 476 kts 58°
2026-04-20 03:48 -37.00465 145.67468 28631 ft 478 kts 58°
2026-04-20 03:48 -36.98510 145.70850 28984 ft 480 kts 58°
2026-04-20 03:48 -36.96552 145.74239 29316 ft 483 kts 58°
2026-04-20 03:49 -36.94605 145.77607 29643 ft 485 kts 58°
2026-04-20 03:49 -36.92620 145.81039 29974 ft 488 kts 58°
2026-04-20 03:49 -36.90626 145.84488 30279 ft 491 kts 58°
2026-04-20 03:49 -36.88647 145.87899 31165 ft 475 kts 58°
2026-04-20 03:50 -36.86714 145.91216 31736 ft 474 kts 58°
2026-04-20 03:50 -36.84761 145.94570 31860 ft 481 kts 58°
2026-04-20 03:50 -36.82782 145.97969 31986 ft 486 kts 58°
2026-04-20 03:50 -36.80788 146.01397 32223 ft 489 kts 58°
2026-04-20 03:51 -36.78786 146.04837 32586 ft 490 kts 58°
2026-04-20 03:51 -36.76784 146.08270 32950 ft 489 kts 58°
2026-04-20 03:51 -36.74784 146.11692 33331 ft 488 kts 58°
2026-04-20 03:51 -36.72784 146.15107 33719 ft 488 kts 58°
2026-04-20 03:52 -36.70781 146.18523 34114 ft 487 kts 58°
2026-04-20 03:52 -36.68787 146.21922 34460 ft 486 kts 59°
2026-04-20 03:52 -36.66790 146.25324 34771 ft 486 kts 59°
2026-04-20 03:52 -36.64795 146.28723 35100 ft 486 kts 58°
2026-04-20 03:53 -36.62797 146.32124 35426 ft 486 kts 58°
2026-04-20 03:53 -36.60802 146.35512 35721 ft 486 kts 58°
2026-04-20 03:53 -36.58799 146.38912 36006 ft 486 kts 58°
2026-04-20 03:53 -36.56802 146.42300 36287 ft 486 kts 58°
2026-04-20 03:54 -36.54804 146.45690 36558 ft 486 kts 58°
2026-04-20 03:54 -36.52802 146.49085 36827 ft 486 kts 58°
2026-04-20 03:54 -36.50801 146.52470 37097 ft 486 kts 58°
2026-04-20 03:54 -36.48800 146.55851 37361 ft 486 kts 58°
2026-04-20 03:55 -36.46801 146.59227 37632 ft 485 kts 58°
2026-04-20 03:55 -36.44801 146.62601 37892 ft 485 kts 58°
2026-04-20 03:55 -36.42800 146.65973 38149 ft 485 kts 58°
2026-04-20 03:55 -36.40801 146.69340 38256 ft 485 kts 58°
2026-04-20 03:56 -36.36794 146.76074 38268 ft 485 kts 58°
2026-04-20 03:56 -36.32781 146.82789 38269 ft 484 kts 58°
2026-04-20 03:57 -36.28768 146.89504 38264 ft 484 kts 58°
2026-04-20 03:57 -36.24762 146.96194 38267 ft 484 kts 58°
2026-04-20 03:58 -36.20744 147.02889 38268 ft 484 kts 58°
2026-04-20 03:58 -36.16720 147.09569 38274 ft 484 kts 58°
2026-04-20 03:59 -36.12698 147.16249 38288 ft 484 kts 58°
2026-04-20 03:59 -36.08706 147.22879 38274 ft 483 kts 59°
2026-04-20 04:00 -36.04690 147.29534 38267 ft 483 kts 58°
2026-04-20 04:00 -36.00660 147.36182 38269 ft 483 kts 58°
2026-04-20 04:01 -35.96626 147.42822 38285 ft 484 kts 58°
2026-04-20 04:01 -35.92586 147.49463 38275 ft 484 kts 58°
2026-04-20 04:02 -35.88542 147.56096 38272 ft 484 kts 58°
2026-04-20 04:02 -35.84496 147.62718 38271 ft 484 kts 58°
2026-04-20 04:03 -35.81133 147.68226 38290 ft 484 kts 58°
2026-04-20 04:03 -35.77086 147.74844 38277 ft 484 kts 58°
2026-04-20 04:04 -35.73030 147.81448 38280 ft 484 kts 58°
2026-04-20 04:04 -35.68970 147.88047 38275 ft 483 kts 58°
2026-04-20 04:05 -35.64907 147.94644 38292 ft 484 kts 58°
2026-04-20 04:05 -35.60844 148.01227 38280 ft 483 kts 58°
2026-04-20 04:06 -35.56776 148.07810 38280 ft 484 kts 58°
2026-04-20 04:06 -35.52700 148.14383 38286 ft 484 kts 58°
2026-04-20 04:07 -35.48617 148.20946 38289 ft 483 kts 58°
2026-04-20 04:07 -35.44536 148.27495 38280 ft 483 kts 58°
2026-04-20 04:08 -35.40460 148.34042 38274 ft 482 kts 59°
2026-04-20 04:08 -35.36392 148.40578 38272 ft 483 kts 58°
2026-04-20 04:09 -35.32306 148.47106 38272 ft 483 kts 58°
2026-04-20 04:09 -35.28212 148.53629 38287 ft 483 kts 58°
2026-04-20 04:10 -35.24118 148.60147 38283 ft 483 kts 58°
2026-04-20 04:10 -35.20027 148.66650 38276 ft 483 kts 58°
2026-04-20 04:11 -35.15934 148.73149 38274 ft 483 kts 58°
2026-04-20 04:11 -35.11835 148.79644 38291 ft 483 kts 58°
2026-04-20 04:12 -35.07728 148.86132 38275 ft 483 kts 58°
2026-04-20 04:12 -35.03622 148.92610 38274 ft 482 kts 58°
2026-04-20 04:13 -34.99541 148.99042 38258 ft 483 kts 58°
2026-04-20 04:13 -34.97489 149.02274 37994 ft 482 kts 58°
2026-04-20 04:13 -34.95438 149.05501 37740 ft 482 kts 58°
2026-04-20 04:14 -34.93382 149.08729 37475 ft 482 kts 58°
2026-04-20 04:14 -34.91323 149.11955 37205 ft 482 kts 57°
2026-04-20 04:14 -34.89266 149.15177 36949 ft 482 kts 57°
2026-04-20 04:14 -34.87208 149.18402 36686 ft 482 kts 57°
2026-04-20 04:15 -34.85149 149.21625 36435 ft 483 kts 57°
2026-04-20 04:15 -34.83083 149.24853 36178 ft 483 kts 57°
2026-04-20 04:15 -34.81018 149.28074 35935 ft 483 kts 57°
2026-04-20 04:15 -34.78948 149.31299 35683 ft 484 kts 57°
2026-04-20 04:16 -34.76877 149.34524 35436 ft 484 kts 57°
2026-04-20 04:16 -34.74816 149.37756 35197 ft 483 kts 59°
2026-04-20 04:16 -34.73042 149.41179 34956 ft 476 kts 68°
2026-04-20 04:16 -34.71497 149.44731 34729 ft 476 kts 68°
2026-04-20 04:17 -34.69953 149.48286 34483 ft 476 kts 68°
2026-04-20 04:17 -34.68405 149.51846 34246 ft 477 kts 68°
2026-04-20 04:17 -34.66852 149.55410 33975 ft 477 kts 68°
2026-04-20 04:17 -34.65298 149.58975 32992 ft 481 kts 68°
2026-04-20 04:18 -34.63722 149.62596 31910 ft 487 kts 68°
2026-04-20 04:18 -34.62129 149.66241 30860 ft 491 kts 67°
2026-04-20 04:18 -34.60514 149.69926 29536 ft 498 kts 66°
2026-04-20 04:18 -34.58882 149.73635 28536 ft 496 kts 66°
2026-04-20 04:19 -34.57267 149.77289 27883 ft 487 kts 66°
2026-04-20 04:19 -34.55677 149.80889 27104 ft 481 kts 66°
2026-04-20 04:19 -34.54106 149.84443 26356 ft 475 kts 66°
2026-04-20 04:19 -34.52552 149.87962 25613 ft 470 kts 66°
2026-04-20 04:20 -34.51016 149.91436 24882 ft 466 kts 66°
2026-04-20 04:20 -34.49493 149.94883 24158 ft 462 kts 65°
2026-04-20 04:20 -34.47982 149.98303 23377 ft 459 kts 65°
2026-04-20 04:20 -34.46504 150.01647 22701 ft 452 kts 65°
2026-04-20 04:21 -34.45008 150.05028 22030 ft 447 kts 65°
2026-04-20 04:21 -34.43549 150.08319 21419 ft 441 kts 65°
2026-04-20 04:21 -34.42122 150.11526 20829 ft 435 kts 65°
2026-04-20 04:21 -34.40683 150.14764 20259 ft 429 kts 65°
2026-04-20 04:22 -34.39281 150.17921 19713 ft 423 kts 64°
2026-04-20 04:22 -34.37910 150.21002 19171 ft 419 kts 64°
2026-04-20 04:22 -34.36534 150.24087 18639 ft 414 kts 64°
2026-04-20 04:22 -34.35171 150.27140 18052 ft 409 kts 64°
2026-04-20 04:23 -34.33827 150.30154 17529 ft 404 kts 64°
2026-04-20 04:23 -34.32505 150.33117 17007 ft 398 kts 64°
2026-04-20 04:23 -34.31195 150.36045 16458 ft 394 kts 64°
2026-04-20 04:23 -34.29877 150.38992 15886 ft 391 kts 64°
2026-04-20 04:24 -34.28604 150.41836 15353 ft 389 kts 64°
2026-04-20 04:24 -34.27319 150.44709 14794 ft 387 kts 64°
2026-04-20 04:24 -34.26041 150.47569 14224 ft 386 kts 64°
2026-04-20 04:24 -34.24751 150.50447 13581 ft 384 kts 64°
2026-04-20 04:25 -34.23485 150.53270 12998 ft 381 kts 64°
2026-04-20 04:25 -34.22244 150.56037 12392 ft 378 kts 64°
2026-04-20 04:25 -34.20996 150.58817 11797 ft 375 kts 64°
2026-04-20 04:25 -34.19758 150.61574 11192 ft 372 kts 64°
2026-04-20 04:26 -34.18529 150.64320 10931 ft 359 kts 64°
2026-04-20 04:26 -34.17381 150.66878 10814 ft 344 kts 64°
2026-04-20 04:26 -34.16264 150.69366 10684 ft 330 kts 64°
2026-04-20 04:26 -34.15189 150.71753 10572 ft 318 kts 64°
2026-04-20 04:27 -34.14150 150.74054 10418 ft 308 kts 64°
2026-04-20 04:27 -34.13136 150.76300 10263 ft 303 kts 65°
2026-04-20 04:27 -34.12128 150.78536 10085 ft 305 kts 65°
2026-04-20 04:27 -34.11117 150.80788 9622 ft 305 kts 65°
2026-04-20 04:28 -34.10108 150.83033 9219 ft 303 kts 65°
2026-04-20 04:28 -34.09103 150.85262 8829 ft 301 kts 65°
2026-04-20 04:28 -34.08107 150.87462 8578 ft 297 kts 65°
2026-04-20 04:28 -34.07122 150.89640 8390 ft 296 kts 65°
2026-04-20 04:29 -34.06144 150.91819 8191 ft 295 kts 65°
2026-04-20 04:29 -34.05169 150.93995 7998 ft 294 kts 65°
2026-04-20 04:29 -34.04195 150.96164 7795 ft 293 kts 65°
2026-04-20 04:29 -34.03211 150.98307 7824 ft 293 kts 63°
2026-04-20 04:30 -34.02189 151.00432 7967 ft 295 kts 63°
2026-04-20 04:30 -34.01160 151.02555 8010 ft 289 kts 63°
2026-04-20 04:30 -34.00154 151.04629 8029 ft 285 kts 63°
2026-04-20 04:30 -33.99136 151.06672 8022 ft 285 kts 62°
2026-04-20 04:31 -33.98096 151.08695 8024 ft 284 kts 62°
2026-04-20 04:31 -33.97052 151.10719 8017 ft 284 kts 62°
2026-04-20 04:31 -33.96008 151.12739 8021 ft 284 kts 62°
2026-04-20 04:31 -33.94963 151.14760 8017 ft 284 kts 61°
2026-04-20 04:32 -33.93917 151.16781 8016 ft 284 kts 62°
2026-04-20 04:32 -33.92872 151.18803 8021 ft 283 kts 61°
2026-04-20 04:32 -33.91840 151.20797 8016 ft 280 kts 62°
2026-04-20 04:32 -33.90811 151.22784 8020 ft 279 kts 62°
2026-04-20 04:33 -33.89786 151.24767 8020 ft 280 kts 62°
2026-04-20 04:33 -33.88761 151.26759 8017 ft 280 kts 62°
2026-04-20 04:33 -33.87735 151.28754 8014 ft 280 kts 62°
2026-04-20 04:33 -33.86703 151.30764 7604 ft 283 kts 62°
2026-04-20 04:34 -33.85681 151.32771 7277 ft 279 kts 62°
2026-04-20 04:34 -33.84684 151.34767 6916 ft 277 kts 63°
2026-04-20 04:34 -33.83685 151.36732 6570 ft 274 kts 63°
2026-04-20 04:34 -33.82689 151.38678 6166 ft 272 kts 63°
2026-04-20 04:35 -33.81706 151.40607 5998 ft 270 kts 63°
2026-04-20 04:35 -33.80723 151.42539 6006 ft 271 kts 62°
2026-04-20 04:35 -33.79457 151.44230 6017 ft 278 kts 36°
2026-04-20 04:35 -33.77651 151.45077 6014 ft 283 kts
2026-04-20 04:36 -33.73726 151.44815 6017 ft 284 kts 353°
2026-04-20 04:36 -33.71762 151.44562 6002 ft 284 kts 353°
2026-04-20 04:36 -33.69781 151.44305 5605 ft 292 kts 353°
2026-04-20 04:37 -33.67705 151.44037 4675 ft 308 kts 353°
2026-04-20 04:37 -33.65519 151.43745 3688 ft 324 kts 351°
2026-04-20 04:37 -33.63335 151.43094 3201 ft 320 kts 341°
2026-04-20 04:37 -33.61316 151.42159 3039 ft 301 kts 325°
2026-04-20 04:38 -33.59898 151.40529 2999 ft 274 kts 297°
2026-04-20 04:38 -33.59109 151.38544 3004 ft 250 kts 286°
2026-04-20 04:38 -33.58616 151.36633 3007 ft 233 kts 270°
2026-04-20 04:38 -33.58742 151.34789 3008 ft 218 kts 246°
2026-04-20 04:39 -33.59424 151.33215 3003 ft 207 kts 229°
2026-04-20 04:39 -33.60281 151.31815 3009 ft 210 kts 230°
2026-04-20 04:39 -33.61139 151.30408 3010 ft 208 kts 229°
2026-04-20 04:39 -33.61991 151.29014 3015 ft 209 kts 229°
2026-04-20 04:40 -33.62850 151.27604 3018 ft 210 kts 229°
2026-04-20 04:40 -33.63702 151.26199 3011 ft 207 kts 231°
2026-04-20 04:40 -33.64547 151.24805 3015 ft 207 kts 230°
2026-04-20 04:40 -33.65384 151.23424 3009 ft 200 kts 228°
2026-04-20 04:41 -33.66191 151.22086 3016 ft 199 kts 230°
2026-04-20 04:41 -33.66994 151.20757 3003 ft 197 kts 229°
2026-04-20 04:41 -33.67794 151.19430 3011 ft 196 kts 229°
2026-04-20 04:41 -33.68598 151.18099 3013 ft 196 kts 229°
2026-04-20 04:42 -33.69393 151.16782 3007 ft 195 kts 230°
2026-04-20 04:42 -33.70205 151.15452 3022 ft 197 kts 226°
2026-04-20 04:42 -33.71193 151.14364 3016 ft 192 kts 209°
2026-04-20 04:42 -33.72387 151.13684 3011 ft 190 kts 195°
2026-04-20 04:43 -33.73647 151.13486 3026 ft 177 kts 177°
2026-04-20 04:43 -33.74837 151.13677 3018 ft 171 kts 171°
2026-04-20 04:43 -33.76001 151.13943 3017 ft 169 kts 170°
2026-04-20 04:43 -33.77146 151.14226 3014 ft 169 kts 170°
2026-04-20 04:44 -33.78300 151.14520 3019 ft 170 kts 169°
2026-04-20 04:44 -33.79393 151.14802 3008 ft 149 kts 169°
2026-04-20 04:44 -33.80344 151.15048 2939 ft 136 kts 169°
2026-04-20 04:44 -33.81243 151.15280 2798 ft 127 kts 169°
2026-04-20 04:45 -33.82094 151.15499 2655 ft 126 kts 170°
2026-04-20 04:45 -33.82938 151.15717 2488 ft 126 kts 170°
2026-04-20 04:45 -33.83792 151.15938 2327 ft 123 kts 169°
2026-04-20 04:45 -33.84626 151.16153 2157 ft 125 kts 171°
2026-04-20 04:46 -33.85459 151.16369 1995 ft 121 kts 171°
2026-04-20 04:46 -33.86296 151.16586 1827 ft 122 kts 169°
2026-04-20 04:46 -33.87112 151.16797 1663 ft 122 kts 169°
2026-04-20 04:46 -33.87945 151.17013 1497 ft 120 kts 172°
2026-04-20 04:47 -33.88766 151.17225 1338 ft 120 kts 171°
2026-04-20 04:47 -33.89589 151.17439 1170 ft 122 kts 170°
2026-04-20 04:47 -33.90417 151.17653 1015 ft 122 kts 170°
2026-04-20 04:47 -33.91236 151.17866 847 ft 119 kts 169°
2026-04-20 04:48 -33.92054 151.18078 681 ft 121 kts 171°
2026-04-20 04:48 -33.92880 151.18293 538 ft 122 kts 170°
2026-04-20 04:48 -33.93701 151.18504 366 ft 120 kts 169°
2026-04-20 04:48 -33.94508 151.18714 209 ft 119 kts 171°
2026-04-20 04:49 -33.95316 151.18935 43 ft 118 kts 172°
2026-04-20 04:49 -33.96023 151.19106 29 ft 79 kts 167°
2026-04-20 04:49 -33.96313 151.19184 23 ft 27 kts 168°
2026-04-20 04:49 -33.96486 151.19220 23 ft 23 kts 176°
2026-04-20 04:50 -33.96587 151.19217 20 ft 21 kts 189°
2026-04-20 04:50 -33.96700 151.19172 17 ft 12 kts 215°
2026-04-20 04:50 -33.96712 151.19151 17 ft 0 kts 243°
2026-04-20 04:52 -33.96715 151.19113 18 ft 16 kts 285°
2026-04-20 04:52 -33.96558 151.19043 19 ft 29 kts 348°
2026-04-20 04:52 -33.96371 151.18994 24 ft 25 kts 347°
2026-04-20 04:53 -33.96208 151.18948 30 ft 23 kts 347°
2026-04-20 04:53 -33.96050 151.18911 26 ft 22 kts 350°
2026-04-20 04:53 -33.95905 151.18872 27 ft 21 kts 348°
2026-04-20 04:53 -33.95762 151.18837 28 ft 21 kts 348°
2026-04-20 04:54 -33.95622 151.18802 25 ft 21 kts 348°
2026-04-20 04:54 -33.95479 151.18764 22 ft 21 kts 348°
2026-04-20 04:54 -33.95341 151.18728 26 ft 19 kts 345°
2026-04-20 04:54 -33.95228 151.18665 28 ft 17 kts 323°
2026-04-20 04:55 -33.95153 151.18583 26 ft 8 kts 315°
2026-04-20 04:55 -33.95120 151.18542 27 ft 5 kts 315°
2026-04-20 04:55 -33.95110 151.18513 27 ft 11 kts 278°
2026-04-20 04:55 -33.95129 151.18400 26 ft 16 kts 257°
2026-04-20 04:56 -33.95146 151.18257 26 ft 19 kts 261°
2026-04-20 04:56 -33.95173 151.18105 26 ft 18 kts 267°
2026-04-20 04:56 -33.95083 151.18024 26 ft 17 kts 349°
2026-04-20 04:56 -33.94966 151.17996 23 ft 18 kts 348°
2026-04-20 04:57 -33.94838 151.17965 21 ft 19 kts 347°
2026-04-20 04:57 -33.94714 151.17931 22 ft 17 kts 348°
2026-04-20 04:57 -33.94603 151.17903 25 ft 14 kts 348°
2026-04-20 04:57 -33.94508 151.17887 23 ft 13 kts
2026-04-20 04:58 -33.94425 151.17911 26 ft 11 kts 360°
2026-04-20 04:58 -33.94337 151.17894 26 ft 13 kts 347°
2026-04-20 04:58 -33.94248 151.17869 25 ft 13 kts 347°
2026-04-20 04:58 -33.94162 151.17847 24 ft 12 kts 348°
2026-04-20 04:59 -33.94076 151.17825 23 ft 13 kts 348°
2026-04-20 04:59 -33.93991 151.17803 23 ft 12 kts 348°
2026-04-20 04:59 -33.93905 151.17780 21 ft 13 kts 347°
2026-04-20 04:59 -33.93836 151.17814 24 ft 14 kts 62°
2026-04-20 05:00 -33.93806 151.17934 28 ft 13 kts 75°
2026-04-20 05:00 -33.93784 151.18025 31 ft 11 kts 72°
2026-04-20 05:00 -33.93752 151.18155 29 ft 17 kts 75°
2026-04-20 05:00 -33.93722 151.18290 31 ft 16 kts 74°
2026-04-20 05:01 -33.93681 151.18384 31 ft 9 kts 31°
2026-04-20 05:01 -33.93641 151.18369 31 ft 7 kts 313°
2026-04-20 05:01 -33.93611 151.18356 31 ft 0 kts 334°